Flag for China Weather past 2 weeks in Guilin, Guangxi, China

Now
57 °F

Partly cloudy.


Feels Like: 57 °F
Forecast: 59 / 67 °F
Wind: 1 mph from North

Location: Guilin Airport

Current Time: Feb 28, 2015 at 1:48:03 AM

Latest Report: Feb 28, 2015 at 1:00 AM


Visibility: N/A

Pressure: 29.98 "Hg

Humidity: 77%

Dew point: 50 °F

Location of GuilinLocation

Historic Weather in Guilin — Graph

°F

Guilin temperature yesterday

Maximum temperature yesterday: 64 °F (at 4:00 PM)
Minimum temperature yesterday: 54 °F (at 12:00 AM)
Average temperature yesterday: 57 °F

Past Weeks' High & Low Weather Summary

 TemperatureHumidityPressure
High75 °F (Feb 16, 3:00 PM)100% (Feb 13, 4:00 AM)30.15 "Hg (Feb 13, 4:00 AM)
Low41 °F (Feb 13, 4:00 AM)47% (Feb 16, 5:00 PM)29.80 "Hg (Feb 25, 3:00 PM)
Average58 °F85%29.99 "Hg
* Reported Midnight between Feb 12 and Feb 13 — Midnight between Feb 27 and Feb 28, Guilin, Weather by CustomWeather, © 2015

Note: Actual official high and low records may vary slightly from our data, if they occured in-between our weather recording intervals... More about our weather records

Advertising

Guilin weather history for previous 24 hours

 ConditionsComfort  
Time TempWeatherWind HumidityBarometerVisibility
12:00 AM
Sat, Feb 28
57 °FPassing clouds.3 mph77%29.95 "HgN/A
11:00 PM
Fri, Feb 27
57 °FPassing clouds.3 mph77%29.95 "HgN/A
10:00 PM57 °FPassing clouds.3 mph82%29.95 "HgN/A
9:00 PM57 °FPassing clouds.3 mph82%29.92 "HgN/A
8:00 PM57 °FPartly cloudy.8 mph82%29.89 "Hg4 mi
7:00 PM59 °FPassing clouds.6 mph82%29.86 "Hg4 mi
6:00 PM63 °FBroken clouds.8 mph77%29.80 "Hg4 mi
5:00 PM64 °FBroken clouds.8 mph78%29.80 "Hg4 mi
4:00 PM64 °FBroken clouds.6 mph73%29.80 "Hg4 mi
3:00 PM63 °FMore clouds than sun.3 mph77%29.80 "Hg4 mi
2:00 PM61 °FBroken clouds.3 mph83%29.86 "Hg4 mi
1:00 PM59 °FMostly cloudy.3 mph82%29.89 "Hg5 mi
12:00 PM57 °FLight rain. Mostly cloudy.1 mph82%29.92 "HgN/A
11:00 AM57 °FMostly cloudy.1 mph82%29.95 "HgN/A
10:00 AM55 °FMostly cloudy.3 mph82%29.95 "HgN/A
9:00 AM55 °FMostly cloudy.3 mph82%29.95 "HgN/A
8:00 AM54 °FMostly cloudy.3 mph88%29.92 "HgN/A
7:00 AM54 °FMostly cloudy.1 mph88%29.92 "HgN/A
6:00 AM54 °FLight rain. Mostly cloudy.1 mph88%29.92 "HgN/A
5:00 AM54 °FMostly cloudy.1 mph88%29.89 "Hg5 mi
4:00 AM54 °FDrizzle. Mostly cloudy.1 mph88%29.89 "Hg6 mi
3:00 AM54 °FMostly cloudy.1 mph88%29.92 "Hg6 mi
2:00 AM54 °FMostly cloudy.3 mph88%29.92 "Hg6 mi
1:00 AM54 °FMostly cloudy.3 mph88%29.95 "HgN/A
Weather by CustomWeather, © 2015

See weather overviewHow to use our weather pages